Regional Weather Roundup
Issued by NWS

Home | Current Version | Previous Version | Graphics & Text | Print | Product List | Glossary On
Versions: 1 2 3 4 5 6 7 8 9 10 11 12 13 14 15 16 17 18 19 20 21 22 23 24 25 26 27 28 29 30 31 32 33 34 35 36 37 38 39 40 41 42 43 44 45 46 47 48 49 50
000
ASUS43 KBIS 182302
RWRND

NORTH DAKOTA REGIONAL WEATHER ROUNDUP
NATIONAL WEATHER SERVICE BISMARCK ND
600 PM CDT FRI AUG 18 2017

NOTE: "FAIR" INDICATES FEW OR NO CLOUDS BELOW 12,000 FEET WITH NO
SIGNIFICANT WEATHER AND/OR OBSTRUCTIONS TO VISIBILITY.


NDZ001>003-009>011-017-190000-
NORTHWEST NORTH DAKOTA

CITY           SKY/WX    TMP DP  RH WIND       PRES   REMARKS
WILLISTON      SUNNY     84  49  29 VRB6      29.88F
MINOT          SUNNY     83  48  29 W9        29.87F
MINOT AFB      SUNNY     83  44  25 W7        29.86F
$$

NDZ018>021-031>035-040>046-190000-
SOUTHWEST NORTH DAKOTA

CITY           SKY/WX    TMP DP  RH WIND       PRES   REMARKS
BISMARCK       SUNNY     82  52  35 NW9       29.91F
DICKINSON      SUNNY     83  48  29 W5        29.91F
GARRISON         N/A     79  50  36 NW5       29.89F
HETTINGER ARPT SUNNY     85  46  25 CALM      29.95F
$$

NDZ004>008-012>016-024-026-027-054-190000-
NORTHEAST NORTH DAKOTA

CITY           SKY/WX    TMP DP  RH WIND       PRES   REMARKS
GRAND FORKS    MOSUNNY   82  55  39 NW7       29.82S
GRND FRKS AFB  MOSUNNY   80  55  41 N7        29.84S
DEVILS LAKE    PTSUNNY   78  53  41 NW6       29.87F
$$

NDZ022-023-025-028>030-036>039-047>053-190000-
SOUTHEAST NORTH DAKOTA

CITY           SKY/WX    TMP DP  RH WIND       PRES   REMARKS
FARGO          SUNNY     79  61  53 W9        29.86S
JAMESTOWN      SUNNY     76  59  55 W5        29.89S
$$





USA.gov is the U.S. government's official web portal to all federal, state and local government web resources and services.